Tracking 30157 objects as of 13-Feb-2025
HD Live streaming from Space Station
objects crossing your sky now

STARLINK-4259

Track STARLINK-4259 now!
10-day predictions
STARLINK-4259 is classified as:


NORAD ID: 52987
Int'l Code: 2022-076B
Perigee: 545.7 km
Apogee: 548.1 km
Inclination: 53.2 °
Period: 95.4 minutes
Semi major axis: 6917 km
RCS: Unknown
Launch date: July 7, 2022
Source: United States (US)
Launch site: AIR FORCE EASTERN TEST RANGE (AFETR)
Your satellite tracking list
Your tracking list is empty




NASA's NSSDC Master Catalog

Two Line Element Set (TLE):
1 52987U 22076B   25043.33205412  .00000853  00000-0  71674-4 0  9997
2 52987  53.2190  56.5047 0001742  96.8898 263.2293 15.08831096143772
Source of the keplerian elements: AFSPC